Hourly Data Report for September 26, 2017

All times are specified in Local Standard Time (LST). Add 1 hour to adjust for Daylight Saving Time where and when it is observed.

NAPPAN AUTO
NOVA SCOTIA

45°45'34.400" N
64°14'29.200" W
19.80 m
8203702
71311
XNP

Download Data

Hourly Data (September 2017)
Hourly Data Report for September 26, 2017
Temp Definition
°C
Dew Point Temp Definition
°C
Rel Hum Definition
%
Wind Dir Definition
10's deg

Wind Spd Definition
km/h
Visibility Definition
km
Stn Press Definition
kPa
Hmdx Definition


Wind Chill Definition


Weather Definition


TIME
00:00 17.1 15.6 91 19 13   101.35     LegendNANA
01:00 17.1 15.7 92 18 17   101.31     LegendNANA
02:00 17.0 16.0 94 18 18   101.29     LegendNANA
03:00 17.4 16.4 94 19 16   101.28     LegendNANA
04:00 17.6 16.5 94 19 15   101.27     LegendNANA
05:00 17.8 16.6 93 18 16   101.25     LegendNANA
06:00 17.0 15.8 93 18 17   101.24     LegendNANA
07:00 17.6 15.6 88 18 14   101.23     LegendNANA
08:00 18.7 16.2 85 20 12   101.22     LegendNANA
09:00 19.5 16.7 84 22 14   101.21     LegendNANA
10:00 21.0 17.3 79 24 12   101.21 26   LegendNANA
11:00 23.6 18.3 72 24 11   101.19 30   LegendNANA
12:00 22.3 17.1 72 29 17   101.18 28   LegendNANA
13:00 24.7 17.6 65 28 9   101.11 30   LegendNANA
14:00 23.9 17.2 66 24 13   101.13 29   LegendNANA
15:00 24.5 17.9 67 26 9   101.12 30   LegendNANA
16:00 23.4 17.4 69 18 8   101.10 29   LegendNANA
17:00 22.3 17.2 73 16 7   101.17 28   LegendNANA
18:00 18.2 16.6 90 28 15   101.33     LegendNANA
19:00 17.1 16.2 95 2 9   101.37     LegendNANA
20:00 17.3 15.8 91 4 11   101.42     LegendNANA
21:00 16.6 15.1 91 4 13   101.48     LegendNANA
22:00 16.2 14.8 91 6 10   101.49     LegendNANA
23:00 16.0 14.6 92 6 10   101.53     LegendNANA

Notes on Data Quality.

Legend

  • E = Estimated
  • M = Missing
  • NA = Not Available
  • ‡ = Partner data that is not subject to review by the National Climate Archives
Date modified: